Regional Weather Roundup
Issued by NWS

Home | Current Version | Previous Version | Graphics & Text | Print | Product List | Glossary On
Versions: 1 2 3 4 5 6 7 8 9 10 11 12 13 14 15 16 17 18 19 20 21 22 23 24 25 26 27 28 29 30 31 32 33 34 35 36 37 38 39 40 41 42 43 44 45 46 47 48 49 50
000
ASUS45 KABQ 260010
RWRNM
NEW MEXICO REGIONAL WEATHER ROUNDUP
NATIONAL WEATHER SERVICE ALBUQUERQUE NM
600 PM MDT FRI MAY 25 2018

NOTE: "FAIR" MEANS FEW OR NO CLOUDS BELOW 12,000 FEET AGL WITH NO
       SIGNIFICANT WEATHER OR OBSTRUCTIONS TO VISION.

      THIS PRODUCT IS RELEASED AS TWO VERSIONS.  ONE VERSION NEAR
      THE TOP OF THE HOUR CONTAINING PRELIMINARY DATA FROM ALBUQUERQUE
      AND OTHER STATIONS.  A FINAL VERSION WITH ADDITIONAL DATA IS
      ISSUED ABOUT 10 MINUTES AFTER THE HOUR.

NMZ501-503-504-510>518-260100-
NORTHWEST PLATEAU/NORTHCENTRAL MOUNTAINS

CITY           SKY/WX    TMP DP  RH WIND       PRES   REMARKS
FARMINGTON     FAIR      88   4   4 NW5       30.00F
6HR MIN TEMP:  77; 6HR MAX TEMP:  89;

LOS ALAMOS     FAIR      82  13   7 S13G24    30.16S
SANTA FE       FAIR      86   5   4 SW12G17   30.09F
6HR MIN TEMP:  81; 6HR MAX TEMP:  88;

TAOS           FAIR      84  16   8 W8        30.15F
ANGEL FIRE     FAIR      74  17  11 W12G18    30.24F

$$
NMZ402-403-502-505>509-260100-
WESTCENTRAL MOUNTAINS/SOUTHWEST MOUNTAINS

CITY           SKY/WX    TMP DP  RH WIND       PRES   REMARKS
GALLUP         FAIR      85   2   4 SW18G29   30.13S
6HR MIN TEMP:  77; 6HR MAX TEMP:  86;

GRANTS         FAIR      85   3   4 W13       30.13F
SILVER CITY    FAIR      88   3   4 W16G24    30.10F

$$
NMZ407-409-411-412-260100-
SOUTHERN DESERTS

CITY           SKY/WX    TMP DP  RH WIND       PRES   REMARKS
DEMING         FAIR      94  12   5 W15G24    30.01F
6HR MIN TEMP:  88; 6HR MAX TEMP:  95;

LAS CRUCES     FAIR      95   5   3 W9G21     30.02S
ALAMOGORDO     FAIR      93   7   4 NW3       29.98S
T OR C         FAIR      95  -7   2 SE18G26   29.96F
6HR MIN TEMP:  86; 6HR MAX TEMP:  97;


$$
NMZ519>523-260100-
CENTRAL VALLEYS/CENTRAL HIGHLANDS

CITY           SKY/WX    TMP DP  RH WIND       PRES   REMARKS
ALBUQUERQUE    FAIR      89  16   7 S6        30.02F
6HR MIN TEMP:  82; 6HR MAX TEMP:  90;

DOUBLE EAGLE   SUNNY     88  14   6 S12       30.06F
MORIARTY ARPT  FAIR      88  11   6 SW9       30.11S
6HR MIN TEMP:  84; 6HR MAX TEMP:  90;

CLINES CORNERS FAIR      83  15   8 W15G23    30.17F
6HR MIN TEMP:  79; 6HR MAX TEMP:  86;

BELEN          FAIR      90  13   6 S9G20     30.01F
6HR MIN TEMP:  82; 6HR MAX TEMP:  91;

SOCORRO        FAIR      92  13   5 SE15G21   29.98F
6HR MIN TEMP:  85; 6HR MAX TEMP:  93;


$$
NMZ524>526-539-540-260100-
SOUTHCENTRAL MOUNTAINS

CITY           SKY/WX    TMP DP  RH WIND       PRES   REMARKS
RUIDOSO        FAIR      82  10   6 NW8G18    30.18F

$$
NMZ527>531-260100-
NORTHEAST HIGHLANDS/NORTHEAST PLAINS

CITY           SKY/WX    TMP DP  RH WIND       PRES   REMARKS
LAS VEGAS      FAIR      84   8   5 SW17      30.11F
6HR MIN TEMP:  82; 6HR MAX TEMP:  87;

RATON          FAIR      84  21  10 S15G23    30.06S
6HR MIN TEMP:  83; 6HR MAX TEMP:  88;

CLAYTON        FAIR      86  43  22 SE14      29.98F
6HR MIN TEMP:  85; 6HR MAX TEMP:  90;


$$
NMZ532>537-260100-
EASTCENTRAL PLAINS

CITY           SKY/WX    TMP DP  RH WIND       PRES   REMARKS
SANTA ROSA     FAIR      93  19   6 W6        29.95F
TUCUMCARI      FAIR      95  32  11 S7        29.89F
6HR MIN TEMP:  88; 6HR MAX TEMP:  97;

CANNON AFB     NOT AVBL
CLOVIS AIRPORT FAIR      91  30  11 W6        29.97F

$$
NMZ028-029-538-260100-
SOUTHEAST PLAINS

CITY           SKY/WX    TMP DP  RH WIND       PRES   REMARKS
ROSWELL        FAIR      98  21   6 SW7       29.88F
6HR MIN TEMP:  93; 6HR MAX TEMP: 101;

ARTESIA        FAIR      99  23   6 SE10      29.87F
CARLSBAD       PTSUNNY   99  18   5 CALM      29.85F
6HR MIN TEMP:  94; 6HR MAX TEMP: 101;

HOBBS          SUNNY     97  21   6 W8        29.92F


$$




USA.gov is the U.S. government's official web portal to all federal, state and local government web resources and services.